Time,TemperatureF,DewpointF,PressureIn,WindDirection,WindDirectionDegrees,WindSpeedMPH,WindSpeedGustMPH,Humidity,HourlyPrecipIn,Conditions,Clouds,dailyrainin,SolarRadiationWatts/m^2,SoftwareType,DateUTC
2013-03-24 00:04:00,28.0,17.4,30.11,SE,144,3.4,8.1,64,0.00,BKN,,0.00,0.0,WeatherDisplay:10.37,2013-03-23 23:04:00,
2013-03-24 00:09:00,27.8,17.2,30.11,ESE,115,5.3,11.5,64,0.00,BKN,,0.00,0.0,WeatherDisplay:10.37,2013-03-23 23:09:00,
2013-03-24 00:14:00,27.7,17.1,30.11,ESE,123,4.8,11.0,64,0.00,BKN,,0.00,0.0,WeatherDisplay:10.37,2013-03-23 23:14:00,
2013-03-24 00:19:00,27.6,17.0,30.11,SE,143,2.9,8.1,64,0.00,BKN,,0.00,0.0,WeatherDisplay:10.37,2013-03-23 23:19:00,
2013-03-24 00:25:00,27.5,16.9,30.11,SE,132,0.0,10.0,64,0.00,BKN,,0.00,0.0,WeatherDisplay:10.37,2013-03-23 23:25:00,
2013-03-24 00:30:00,27.4,17.2,30.11,East,93,2.0,6.0,65,0.00,BKN,,0.00,0.0,WeatherDisplay:10.37,2013-03-23 23:30:00,
2013-03-24 00:35:00,27.3,17.1,30.11,East,86,3.4,8.1,65,0.00,BKN,,0.00,0.0,WeatherDisplay:10.37,2013-03-23 23:35:00,
2013-03-24 00:40:00,27.1,16.9,30.11,SSW,192,4.7,12.7,65,0.00,BKN,,0.00,0.0,WeatherDisplay:10.37,2013-03-23 23:40:00,
2013-03-24 00:45:00,26.8,16.2,30.11,ESE,104,4.3,9.0,64,0.00,BKN,,0.00,0.0,WeatherDisplay:10.37,2013-03-23 23:45:00,
2013-03-24 00:50:00,26.5,16.3,30.12,SE,136,5.4,10.0,65,0.00,BKN,,0.00,0.0,WeatherDisplay:10.37,2013-03-23 23:50:00,
2013-03-24 00:55:00,26.2,16.4,30.12,SSW,200,2.7,15.0,66,0.00,BKN,,0.00,0.0,WeatherDisplay:10.37,2013-03-23 23:55:00,
2013-03-24 01:00:00,25.9,16.4,30.13,South,178,5.4,11.5,67,0.00,BKN,,0.00,0.0,WeatherDisplay:10.37,2013-03-24 00:00:00,
2013-03-24 01:05:00,25.7,16.6,30.12,SSE,168,4.3,8.1,68,0.00,BKN,,0.00,0.0,WeatherDisplay:10.37,2013-03-24 00:05:00,
2013-03-24 01:10:00,25.5,16.4,30.12,SE,137,4.9,9.0,68,0.00,BKN,,0.00,0.0,WeatherDisplay:10.37,2013-03-24 00:10:00,
2013-03-24 01:15:00,25.3,16.2,30.13,SE,131,0.3,3.5,68,0.00,BKN,,0.00,0.0,WeatherDisplay:10.37,2013-03-24 00:15:00,
2013-03-24 01:20:00,25.2,16.1,30.13,ESE,107,2.4,9.2,68,0.00,BKN,,0.00,0.0,WeatherDisplay:10.37,2013-03-24 00:20:00,
2013-03-24 01:25:00,25.0,15.9,30.13,ESE,103,1.8,3.5,68,0.00,BKN,,0.00,0.0,WeatherDisplay:10.37,2013-03-24 00:25:00,
2013-03-24 01:31:00,24.9,16.2,30.13,SE,143,2.4,5.0,69,0.00,BKN,,0.00,0.0,WeatherDisplay:10.37,2013-03-24 00:31:00,
2013-03-24 01:37:00,24.8,16.4,30.13,ESE,121,3.8,5.8,70,0.00,BKN,,0.00,0.0,WeatherDisplay:10.37,2013-03-24 00:37:00,
2013-03-24 01:42:00,24.8,16.4,30.13,East,87,0.6,4.6,70,0.00,BKN,,0.00,0.0,WeatherDisplay:10.37,2013-03-24 00:42:00,
2013-03-24 01:48:00,24.6,16.2,30.13,SE,146,2.1,6.9,70,0.00,BKN,,0.00,0.0,WeatherDisplay:10.37,2013-03-24 00:48:00,
2013-03-24 01:53:00,24.5,16.1,30.13,ESE,123,4.2,6.0,70,0.00,BKN,,0.00,0.0,WeatherDisplay:10.37,2013-03-24 00:53:00,
2013-03-24 01:58:00,24.5,16.1,30.13,SE,141,1.0,3.5,70,0.00,BKN,,0.00,0.0,WeatherDisplay:10.37,2013-03-24 00:58:00,
2013-03-24 02:03:00,24.4,16.0,30.13,SE,140,0.0,1.2,70,0.00,BKN,,0.00,0.0,WeatherDisplay:10.37,2013-03-24 01:03:00,
2013-03-24 02:08:00,24.3,16.2,30.13,SSE,163,2.6,4.6,71,0.00,BKN,,0.00,0.0,WeatherDisplay:10.37,2013-03-24 01:08:00,
2013-03-24 02:13:00,24.3,16.2,30.13,SSE,159,3.7,6.9,71,0.00,BKN,,0.00,0.0,WeatherDisplay:10.37,2013-03-24 01:13:00,
2013-03-24 02:18:00,24.2,15.8,30.13,SE,135,2.2,4.6,70,0.00,BKN,,0.00,0.0,WeatherDisplay:10.37,2013-03-24 01:18:00,
2013-03-24 02:23:00,24.1,15.7,30.13,SSE,155,4.5,7.0,70,0.00,BKN,,0.00,0.0,WeatherDisplay:10.37,2013-03-24 01:23:00,
2013-03-24 02:28:00,24.0,15.6,30.13,SE,144,1.5,3.5,70,0.00,BKN,,0.00,0.0,WeatherDisplay:10.37,2013-03-24 01:28:00,
2013-03-24 02:33:00,23.9,15.5,30.13,ESE,118,3.0,6.0,70,0.00,BKN,,0.00,0.0,WeatherDisplay:10.37,2013-03-24 01:33:00,
2013-03-24 02:38:00,23.8,15.1,30.13,ESE,119,5.0,8.1,69,0.00,BKN,,0.00,0.0,WeatherDisplay:10.37,2013-03-24 01:38:00,
2013-03-24 02:43:00,23.6,14.9,30.13,SE,136,3.5,6.0,69,0.00,BKN,,0.00,0.0,WeatherDisplay:10.37,2013-03-24 01:43:00,
2013-03-24 02:48:00,23.6,15.2,30.14,SE,127,2.1,6.9,70,0.00,BKN,,0.00,0.0,WeatherDisplay:10.37,2013-03-24 01:48:00,
2013-03-24 02:53:00,23.5,15.1,30.14,ESE,105,3.0,5.8,70,0.00,BKN,,0.00,0.0,WeatherDisplay:10.37,2013-03-24 01:53:00,
2013-03-24 02:58:00,23.4,15.1,30.13,ESE,113,0.0,3.5,70,0.00,BKN,,0.00,0.0,WeatherDisplay:10.37,2013-03-24 01:58:00,
2013-03-24 03:03:00,23.4,15.1,30.13,East,99,2.5,5.8,70,0.00,BKN,,0.00,0.0,WeatherDisplay:10.37,2013-03-24 02:03:00,
2013-03-24 03:08:00,23.4,15.1,30.13,SE,135,1.0,3.5,70,0.00,BKN,,0.00,0.0,WeatherDisplay:10.37,2013-03-24 02:08:00,
2013-03-24 03:13:00,23.4,15.4,30.14,SSE,163,1.2,3.5,71,0.00,BKN,,0.00,0.0,WeatherDisplay:10.37,2013-03-24 02:13:00,
2013-03-24 03:18:00,23.3,15.0,30.14,SE,138,2.4,4.6,70,0.00,BKN,,0.00,0.0,WeatherDisplay:10.37,2013-03-24 02:18:00,
2013-03-24 03:23:00,23.2,14.9,30.14,ESE,118,2.5,4.6,70,0.00,BKN,,0.00,0.0,WeatherDisplay:10.37,2013-03-24 02:23:00,
2013-03-24 03:28:00,23.2,15.2,30.14,South,174,0.8,3.5,71,0.00,BKN,,0.00,0.0,WeatherDisplay:10.37,2013-03-24 02:28:00,
2013-03-24 03:33:00,23.1,15.1,30.14,SSE,165,3.1,4.6,71,0.00,BKN,,0.00,0.0,WeatherDisplay:10.37,2013-03-24 02:33:00,
2013-03-24 03:38:00,23.1,14.8,30.14,SE,127,3.8,7.0,70,0.00,BKN,,0.00,0.0,WeatherDisplay:10.37,2013-03-24 02:38:00,
2013-03-24 03:43:00,23.0,14.7,30.14,SE,144,1.7,5.8,70,0.00,BKN,,0.00,0.0,WeatherDisplay:10.37,2013-03-24 02:43:00,
2013-03-24 03:48:00,23.0,14.7,30.14,South,173,2.7,3.5,70,0.00,BKN,,0.00,0.0,WeatherDisplay:10.37,2013-03-24 02:48:00,
2013-03-24 03:53:00,23.1,14.8,30.14,SSW,199,2.1,3.5,70,0.00,BKN,,0.00,0.0,WeatherDisplay:10.37,2013-03-24 02:53:00,
2013-03-24 03:58:00,23.0,14.7,30.14,South,176,2.7,5.8,70,0.00,BKN,,0.00,0.0,WeatherDisplay:10.37,2013-03-24 02:58:00,
2013-03-24 04:03:00,23.0,14.7,30.15,SE,144,2.9,5.8,70,0.00,BKN,,0.00,0.0,WeatherDisplay:10.37,2013-03-24 03:03:00,
2013-03-24 04:09:00,23.0,14.7,30.15,SSE,157,1.2,3.5,70,0.00,BKN,,0.00,0.0,WeatherDisplay:10.37,2013-03-24 03:09:00,
2013-03-24 04:14:00,23.0,14.7,30.14,East,86,2.1,5.8,70,0.00,BKN,,0.00,0.0,WeatherDisplay:10.37,2013-03-24 03:14:00,
2013-03-24 04:19:00,23.0,14.3,30.15,ESE,112,2.8,5.8,69,0.00,BKN,,0.00,0.0,WeatherDisplay:10.37,2013-03-24 03:19:00,
2013-03-24 04:24:00,23.0,14.0,30.15,East,96,3.0,4.6,68,0.00,BKN,,0.00,0.0,WeatherDisplay:10.37,2013-03-24 03:24:00,
2013-03-24 04:29:00,22.9,13.9,30.15,SE,135,1.0,5.8,68,0.00,BKN,,0.00,0.0,WeatherDisplay:10.37,2013-03-24 03:29:00,
2013-03-24 04:34:00,22.8,13.8,30.15,ESE,121,2.1,4.6,68,0.00,BKN,,0.00,0.0,WeatherDisplay:10.37,2013-03-24 03:34:00,
2013-03-24 04:39:00,22.8,13.8,30.15,SE,135,2.0,3.5,68,0.00,BKN,,0.00,0.0,WeatherDisplay:10.37,2013-03-24 03:39:00,
2013-03-24 04:44:00,22.8,13.5,30.15,ESE,107,0.9,4.0,67,0.00,BKN,,0.00,0.0,WeatherDisplay:10.37,2013-03-24 03:44:00,
2013-03-24 04:49:00,22.8,13.1,30.15,SE,129,2.6,8.1,66,0.00,BKN,,0.00,0.0,WeatherDisplay:10.37,2013-03-24 03:49:00,
2013-03-24 04:54:00,22.7,13.0,30.15,SE,130,2.7,5.0,66,0.00,BKN,,0.00,0.0,WeatherDisplay:10.37,2013-03-24 03:54:00,
2013-03-24 04:59:00,22.7,13.0,30.15,SE,132,3.9,5.0,66,0.00,BKN,,0.00,0.0,WeatherDisplay:10.37,2013-03-24 03:59:00,
2013-03-24 05:00:00,22.6,13.0,30.15,SE,128,3.0,7.0,66,0.00,BKN,,0.00,0.0,WeatherDisplay:10.37,2013-03-24 04:00:00,
2013-03-24 05:01:00,22.7,12.7,30.16,East,79,3.0,7.0,65,0.00,BKN,,0.00,0.0,WeatherDisplay:10.37,2013-03-24 04:01:00,
2013-03-24 05:02:00,22.6,12.6,30.16,ESE,109,2.7,6.9,65,0.00,BKN,,0.00,0.0,WeatherDisplay:10.37,2013-03-24 04:02:00,
2013-03-24 05:07:00,22.5,12.5,30.16,ESE,112,1.2,4.6,65,0.00,BKN,,0.00,0.0,WeatherDisplay:10.37,2013-03-24 04:07:00,
2013-03-24 05:12:00,22.5,12.5,30.16,SE,124,1.2,3.5,65,0.00,BKN,,0.00,0.0,WeatherDisplay:10.37,2013-03-24 04:12:00,
2013-03-24 05:17:00,22.5,12.5,30.15,SE,125,2.3,4.6,65,0.00,BKN,,0.00,0.0,WeatherDisplay:10.37,2013-03-24 04:17:00,
2013-03-24 05:22:00,22.5,12.5,30.15,SE,129,3.1,5.0,65,0.00,BKN,,0.00,0.0,WeatherDisplay:10.37,2013-03-24 04:22:00,
2013-03-24 05:27:00,22.5,12.5,30.15,SE,133,4.4,5.0,65,0.00,BKN,,0.00,0.0,WeatherDisplay:10.37,2013-03-24 04:27:00,
2013-03-24 05:32:00,22.4,12.1,30.15,SE,137,1.5,6.9,64,0.00,BKN,,0.00,0.0,WeatherDisplay:10.37,2013-03-24 04:32:00,
2013-03-24 05:37:00,22.4,12.4,30.15,SE,127,2.1,4.0,65,0.00,BKN,,0.00,0.0,WeatherDisplay:10.37,2013-03-24 04:37:00,
2013-03-24 05:42:00,22.4,12.4,30.15,ESE,102,1.4,4.0,65,0.00,BKN,,0.00,0.0,WeatherDisplay:10.37,2013-03-24 04:42:00,
2013-03-24 05:47:00,22.4,12.1,30.16,SSE,147,1.4,3.5,64,0.00,BKN,,0.00,0.0,WeatherDisplay:10.37,2013-03-24 04:47:00,
2013-03-24 05:52:00,22.4,12.4,30.16,ESE,109,2.5,5.0,65,0.00,BKN,,0.00,5.0,WeatherDisplay:10.37,2013-03-24 04:52:00,
2013-03-24 05:57:00,22.4,12.1,30.16,SE,130,1.1,3.5,64,0.00,BKN,,0.00,9.0,WeatherDisplay:10.37,2013-03-24 04:57:00,
2013-03-24 06:02:00,22.4,12.1,30.16,ESE,122,1.7,3.5,64,0.00,BKN,,0.00,12.0,WeatherDisplay:10.37,2013-03-24 05:02:00,
2013-03-24 06:07:00,22.5,12.1,30.16,SE,135,3.5,6.9,64,0.00,BKN,,0.00,12.0,WeatherDisplay:10.37,2013-03-24 05:07:00,
2013-03-24 06:12:00,22.5,11.8,30.17,ESE,113,3.8,9.2,63,0.00,BKN,,0.00,12.0,WeatherDisplay:10.37,2013-03-24 05:12:00,
2013-03-24 06:17:00,22.5,11.8,30.17,SE,136,2.5,7.0,63,0.00,BKN,,0.00,14.0,WeatherDisplay:10.37,2013-03-24 05:17:00,
2013-03-24 06:22:00,22.5,11.8,30.17,ESE,115,2.0,4.6,63,0.00,BKN,,0.00,18.0,WeatherDisplay:10.37,2013-03-24 05:22:00,
2013-03-24 06:27:00,22.5,11.8,30.17,ESE,121,1.1,3.5,63,0.00,BKN,,0.00,19.0,WeatherDisplay:10.37,2013-03-24 05:27:00,
2013-03-24 06:32:00,22.5,11.4,30.17,East,88,3.6,6.0,62,0.00,BKN,,0.00,23.0,WeatherDisplay:10.37,2013-03-24 05:32:00,
2013-03-24 06:37:00,22.5,11.4,30.17,ESE,110,5.9,8.1,62,0.00,BKN,,0.00,30.0,WeatherDisplay:10.37,2013-03-24 05:37:00,
2013-03-24 06:42:00,22.5,11.4,30.17,SE,128,3.7,7.0,62,0.00,BKN,,0.00,35.0,WeatherDisplay:10.37,2013-03-24 05:42:00,
2013-03-24 06:48:00,22.5,11.1,30.17,SE,133,0.1,4.6,61,0.00,BKN,,0.00,44.0,WeatherDisplay:10.37,2013-03-24 05:48:00,
2013-03-24 06:54:00,22.6,11.2,30.17,SE,142,0.8,2.3,61,0.00,BKN,,0.00,46.0,WeatherDisplay:10.37,2013-03-24 05:54:00,
2013-03-24 06:59:00,22.6,11.5,30.18,SE,140,3.0,4.6,62,0.00,BKN,,0.00,46.0,WeatherDisplay:10.37,2013-03-24 05:59:00,
2013-03-24 07:04:00,22.7,11.3,30.18,ESE,119,3.2,6.9,61,0.00,BKN,,0.00,44.0,WeatherDisplay:10.37,2013-03-24 06:04:00,
2013-03-24 07:09:00,22.8,11.3,30.18,SE,126,2.0,3.5,61,0.00,BKN,,0.00,46.0,WeatherDisplay:10.37,2013-03-24 06:09:00,
2013-03-24 07:14:00,22.8,11.3,30.18,ESE,123,1.2,2.3,61,0.00,BKN,,0.00,51.0,WeatherDisplay:10.37,2013-03-24 06:14:00,
2013-03-24 07:19:00,22.9,11.4,30.18,East,93,1.2,3.5,61,0.00,BKN,,0.00,47.0,WeatherDisplay:10.37,2013-03-24 06:19:00,
2013-03-24 07:24:00,23.0,11.5,30.18,East,81,1.5,4.6,61,0.00,BKN,,0.00,49.0,WeatherDisplay:10.37,2013-03-24 06:24:00,
2013-03-24 07:29:00,23.1,11.6,30.18,ENE,58,1.0,3.5,61,0.00,BKN,,0.00,62.0,WeatherDisplay:10.37,2013-03-24 06:29:00,
2013-03-24 07:34:00,23.2,11.7,30.18,East,79,1.3,4.6,61,0.00,BKN,,0.00,76.0,WeatherDisplay:10.37,2013-03-24 06:34:00,
2013-03-24 07:39:00,23.3,11.8,30.18,ESE,107,2.2,4.0,61,0.00,BKN,,0.00,88.0,WeatherDisplay:10.37,2013-03-24 06:39:00,
2013-03-24 07:44:00,23.4,11.9,30.19,SE,127,3.3,5.8,61,0.00,BKN,,0.00,121.0,WeatherDisplay:10.37,2013-03-24 06:44:00,
2013-03-24 07:49:00,23.6,12.1,30.19,East,94,1.2,5.0,61,0.00,SCT,,0.00,127.0,WeatherDisplay:10.37,2013-03-24 06:49:00,
2013-03-24 07:54:00,23.7,12.6,30.19,ENE,78,3.0,4.6,62,0.00,SCT,,0.00,105.0,WeatherDisplay:10.37,2013-03-24 06:54:00,
2013-03-24 07:59:00,23.9,12.4,30.19,East,101,3.6,6.0,61,0.00,BKN,,0.00,111.0,WeatherDisplay:10.37,2013-03-24 06:59:00,
2013-03-24 08:04:00,24.0,12.5,30.19,ENE,64,0.1,3.5,61,0.00,BKN,,0.00,120.0,WeatherDisplay:10.37,2013-03-24 07:04:00,
2013-03-24 08:09:00,24.1,12.6,30.19,East,98,0.4,3.5,61,0.00,BKN,,0.00,118.0,WeatherDisplay:10.37,2013-03-24 07:09:00,
2013-03-24 08:14:00,24.2,12.7,30.19,East,94,1.5,6.9,61,0.00,BKN,,0.00,134.0,WeatherDisplay:10.37,2013-03-24 07:14:00,
2013-03-24 08:19:00,24.3,12.8,30.19,NE,55,2.6,5.0,61,0.00,BKN,,0.00,141.0,WeatherDisplay:10.37,2013-03-24 07:19:00,
2013-03-24 08:24:00,24.4,12.5,30.19,East,94,3.2,5.0,60,0.00,BKN,,0.00,153.0,WeatherDisplay:10.37,2013-03-24 07:24:00,
2013-03-24 08:29:00,24.5,12.6,30.19,East,86,2.6,5.0,60,0.00,BKN,,0.00,137.0,WeatherDisplay:10.37,2013-03-24 07:29:00,
2013-03-24 08:34:00,24.6,12.7,30.19,ESE,121,0.6,2.3,60,0.00,BKN,,0.00,142.0,WeatherDisplay:10.37,2013-03-24 07:34:00,
2013-03-24 08:39:00,24.7,12.8,30.19,ESE,115,3.2,6.0,60,0.00,BKN,,0.00,148.0,WeatherDisplay:10.37,2013-03-24 07:39:00,
2013-03-24 08:44:00,24.8,12.9,30.19,East,90,2.6,4.0,60,0.00,BKN,,0.00,158.0,WeatherDisplay:10.37,2013-03-24 07:44:00,
2013-03-24 08:49:00,24.9,13.0,30.19,ESE,112,0.1,3.5,60,0.00,BKN,,0.00,167.0,WeatherDisplay:10.37,2013-03-24 07:49:00,
2013-03-24 08:54:00,25.0,13.1,30.19,SSE,155,0.3,3.5,60,0.00,BKN,,0.00,200.0,WeatherDisplay:10.37,2013-03-24 07:54:00,
2013-03-24 08:59:00,25.2,13.2,30.19,ESE,102,2.0,3.5,60,0.00,SCT,,0.00,193.0,WeatherDisplay:10.37,2013-03-24 07:59:00,
2013-03-24 09:04:00,25.5,13.5,30.19,SE,132,1.1,3.5,60,0.00,SCT,,0.00,202.0,WeatherDisplay:10.37,2013-03-24 08:04:00,
2013-03-24 09:09:00,25.6,13.2,30.19,East,94,2.6,5.0,59,0.00,SCT,,0.00,213.0,WeatherDisplay:10.37,2013-03-24 08:09:00,
2013-03-24 09:14:00,25.7,12.9,30.19,ESE,120,2.9,5.8,58,0.00,SCT,,0.00,227.0,WeatherDisplay:10.37,2013-03-24 08:14:00,
2013-03-24 09:19:00,25.8,13.4,30.19,ENE,60,0.9,3.5,59,0.00,SCT,,0.00,234.0,WeatherDisplay:10.37,2013-03-24 08:19:00,
2013-03-24 09:24:00,26.0,13.2,30.19,North,360,0.9,3.0,58,0.00,SCT,,0.00,225.0,WeatherDisplay:10.37,2013-03-24 08:24:00,
2013-03-24 09:29:00,26.2,13.8,30.19,NNE,15,0.3,2.3,59,0.00,SCT,,0.00,274.0,WeatherDisplay:10.37,2013-03-24 08:29:00,
2013-03-24 09:34:00,26.6,13.8,30.19,East,93,0.6,3.5,58,0.00,SCT,,0.00,262.0,WeatherDisplay:10.37,2013-03-24 08:34:00,
2013-03-24 09:39:00,26.5,13.3,30.19,ESE,120,1.3,3.0,57,0.00,SCT,,0.00,271.0,WeatherDisplay:10.37,2013-03-24 08:39:00,
2013-03-24 09:44:00,26.6,13.4,30.19,North,11,1.5,3.5,57,0.00,SCT,,0.00,269.0,WeatherDisplay:10.37,2013-03-24 08:44:00,
2013-03-24 09:49:00,26.9,13.7,30.19,ESE,113,0.1,2.3,57,0.00,SCT,,0.00,302.0,WeatherDisplay:10.37,2013-03-24 08:49:00,
2013-03-24 09:54:00,27.1,13.5,30.19,North,9,0.8,3.5,56,0.00,SCT,,0.00,313.0,WeatherDisplay:10.37,2013-03-24 08:54:00,
2013-03-24 09:59:00,27.3,13.7,30.19,East,86,0.0,2.3,56,0.00,SCT,,0.00,318.0,WeatherDisplay:10.37,2013-03-24 08:59:00,
2013-03-24 10:04:00,27.4,13.3,30.19,ESE,117,2.3,4.0,55,0.00,SCT,,0.00,318.0,WeatherDisplay:10.37,2013-03-24 09:04:00,
2013-03-24 10:09:00,27.5,13.0,30.19,NE,53,1.6,4.6,54,0.00,SCT,,0.00,253.0,WeatherDisplay:10.37,2013-03-24 09:09:00,
2013-03-24 10:14:00,27.6,13.1,30.19,SE,126,1.2,2.3,54,0.00,SCT,,0.00,301.0,WeatherDisplay:10.37,2013-03-24 09:14:00,
2013-03-24 10:19:00,27.7,13.2,30.19,ENE,76,1.5,4.0,54,0.00,SCT,,0.00,374.0,WeatherDisplay:10.37,2013-03-24 09:19:00,
2013-03-24 10:24:00,28.0,13.5,30.18,East,101,2.2,5.8,54,0.00,SCT,,0.00,278.0,WeatherDisplay:10.37,2013-03-24 09:24:00,
2013-03-24 10:29:00,28.1,12.7,30.19,ENE,67,2.8,7.0,52,0.00,SCT,,0.00,257.0,WeatherDisplay:10.37,2013-03-24 09:29:00,
2013-03-24 10:34:00,28.1,13.1,30.18,SE,127,3.0,9.0,53,0.00,SCT,,0.00,257.0,WeatherDisplay:10.37,2013-03-24 09:34:00,
2013-03-24 10:39:00,28.1,12.7,30.18,ENE,76,1.4,6.9,52,0.00,BKN,,0.00,237.0,WeatherDisplay:10.37,2013-03-24 09:39:00,
2013-03-24 10:44:00,28.1,11.8,30.18,East,84,1.4,6.9,50,0.00,BKN,,0.00,255.0,WeatherDisplay:10.37,2013-03-24 09:44:00,
2013-03-24 10:49:00,28.1,12.3,30.18,ESE,117,2.2,6.9,51,0.00,BKN,,0.00,274.0,WeatherDisplay:10.37,2013-03-24 09:49:00,
2013-03-24 10:54:00,28.3,12.5,30.18,SSE,151,1.1,3.5,51,0.00,SCT,,0.00,276.0,WeatherDisplay:10.37,2013-03-24 09:54:00,
2013-03-24 10:59:00,28.3,11.1,30.17,ENE,64,0.4,3.5,48,0.00,SCT,,0.00,248.0,WeatherDisplay:10.37,2013-03-24 09:59:00,
2013-03-24 11:04:00,28.3,10.6,30.17,SSE,150,3.0,7.0,47,0.00,BKN,,0.00,241.0,WeatherDisplay:10.37,2013-03-24 10:04:00,
2013-03-24 11:09:00,28.5,11.3,30.17,ESE,109,1.6,5.8,48,0.00,BKN,,0.00,260.0,WeatherDisplay:10.37,2013-03-24 10:09:00,
2013-03-24 11:14:00,28.4,11.2,30.17,ENE,58,1.1,4.0,48,0.00,BKN,,0.00,237.0,WeatherDisplay:10.37,2013-03-24 10:14:00,
2013-03-24 11:19:00,28.4,11.2,30.17,SE,130,3.2,6.0,48,0.00,BKN,,0.00,229.0,WeatherDisplay:10.37,2013-03-24 10:19:00,
2013-03-24 11:24:00,28.5,11.3,30.17,East,88,5.6,7.0,48,0.00,BKN,,0.00,250.0,WeatherDisplay:10.37,2013-03-24 10:24:00,
2013-03-24 11:29:00,28.7,11.9,30.17,SE,131,1.0,10.4,49,0.00,BKN,,0.00,250.0,WeatherDisplay:10.37,2013-03-24 10:29:00,
2013-03-24 11:34:00,28.9,11.2,30.17,NE,51,2.2,6.9,47,0.00,BKN,,0.00,257.0,WeatherDisplay:10.37,2013-03-24 10:34:00,
2013-03-24 11:39:00,28.9,10.7,30.17,ENE,67,2.2,6.0,46,0.00,BKN,,0.00,258.0,WeatherDisplay:10.37,2013-03-24 10:39:00,
2013-03-24 11:44:00,28.9,10.7,30.17,East,98,1.9,6.0,46,0.00,BKN,,0.00,285.0,WeatherDisplay:10.37,2013-03-24 10:44:00,
2013-03-24 11:49:00,29.2,11.0,30.17,ENE,67,2.6,6.9,46,0.00,SCT,,0.00,301.0,WeatherDisplay:10.37,2013-03-24 10:49:00,
2013-03-24 11:54:00,29.3,10.6,30.17,East,98,1.2,4.6,45,0.00,SCT,,0.00,320.0,WeatherDisplay:10.37,2013-03-24 10:54:00,
2013-03-24 11:59:00,29.3,10.1,30.17,ESE,123,1.3,4.6,44,0.00,SCT,,0.00,378.0,WeatherDisplay:10.37,2013-03-24 10:59:00,
2013-03-24 12:04:00,29.6,10.8,30.17,ENE,76,1.7,4.0,45,0.00,SCT,,0.00,359.0,WeatherDisplay:10.37,2013-03-24 11:04:00,
2013-03-24 12:09:00,29.9,10.6,30.17,East,91,3.4,5.0,44,0.00,SCT,,0.00,369.0,WeatherDisplay:10.37,2013-03-24 11:09:00,
2013-03-24 12:14:00,29.9,10.1,30.16,NNE,24,2.6,7.0,43,0.00,SCT,,0.00,448.0,WeatherDisplay:10.37,2013-03-24 11:14:00,
2013-03-24 12:19:00,30.3,10.4,30.16,SSE,150,4.7,6.0,43,0.00,SCT,,0.00,411.0,WeatherDisplay:10.37,2013-03-24 11:19:00,
2013-03-24 12:24:00,30.5,10.6,30.16,East,85,3.2,10.4,43,0.00,FEW,,0.00,455.0,WeatherDisplay:10.37,2013-03-24 11:24:00,
2013-03-24 12:29:00,30.7,10.3,30.16,ENE,65,3.5,5.0,42,0.00,FEW,,0.00,503.0,WeatherDisplay:10.37,2013-03-24 11:29:00,
2013-03-24 12:34:00,31.4,11.5,30.15,East,91,2.0,6.9,43,0.00,FEW,,0.00,404.0,WeatherDisplay:10.37,2013-03-24 11:34:00,
2013-03-24 12:39:00,31.6,10.6,30.15,SE,132,1.0,3.5,41,0.00,FEW,,0.00,367.0,WeatherDisplay:10.37,2013-03-24 11:39:00,
2013-03-24 12:44:00,31.7,10.7,30.15,North,350,3.4,6.9,41,0.00,SCT,,0.00,327.0,WeatherDisplay:10.37,2013-03-24 11:44:00,
2013-03-24 12:49:00,32.1,11.6,30.15,SE,135,1.3,5.0,42,0.00,SCT,,0.00,339.0,WeatherDisplay:10.37,2013-03-24 11:49:00,
2013-03-24 12:54:00,32.3,11.7,30.14,South,180,1.1,5.8,42,0.00,SCT,,0.00,341.0,WeatherDisplay:10.37,2013-03-24 11:54:00,
2013-03-24 12:59:00,32.4,10.2,30.14,ENE,65,4.5,7.0,39,0.00,SCT,,0.00,309.0,WeatherDisplay:10.37,2013-03-24 11:59:00,
2013-03-24 13:04:00,32.4,10.2,30.14,ENE,71,2.3,5.0,39,0.00,SCT,,0.00,311.0,WeatherDisplay:10.37,2013-03-24 12:04:00,
2013-03-24 13:09:00,32.4,10.2,30.14,NE,51,5.2,8.0,39,0.00,SCT,,0.00,313.0,WeatherDisplay:10.37,2013-03-24 12:09:00,
2013-03-24 13:14:00,32.5,10.8,30.14,ENE,57,3.2,7.0,40,0.00,SCT,,0.00,285.0,WeatherDisplay:10.37,2013-03-24 12:14:00,
2013-03-24 13:19:00,32.6,10.9,30.13,ENE,63,3.0,6.0,40,0.00,SCT,,0.00,227.0,WeatherDisplay:10.37,2013-03-24 12:19:00,
2013-03-24 13:24:00,32.7,10.4,30.13,ENE,74,2.4,5.0,39,0.00,SCT,,0.00,246.0,WeatherDisplay:10.37,2013-03-24 12:24:00,
2013-03-24 13:29:00,32.8,10.5,30.13,NE,41,2.5,6.9,39,0.00,BKN,,0.00,257.0,WeatherDisplay:10.37,2013-03-24 12:29:00,
2013-03-24 13:34:00,33.0,10.1,30.13,SE,134,5.5,8.1,38,0.00,SCT,,0.00,267.0,WeatherDisplay:10.37,2013-03-24 12:34:00,
2013-03-24 13:39:00,33.0,9.5,30.13,East,98,4.8,9.0,37,0.00,SCT,,0.00,269.0,WeatherDisplay:10.37,2013-03-24 12:39:00,
2013-03-24 13:44:00,33.0,10.1,30.12,SE,129,1.2,5.8,38,0.00,SCT,,0.00,274.0,WeatherDisplay:10.37,2013-03-24 12:44:00,
2013-03-24 13:49:00,33.0,10.1,30.13,SSE,149,5.0,7.0,38,0.00,SCT,,0.00,274.0,WeatherDisplay:10.37,2013-03-24 12:49:00,
2013-03-24 13:54:00,33.2,10.3,30.13,East,98,4.2,10.4,38,0.00,SCT,,0.00,265.0,WeatherDisplay:10.37,2013-03-24 12:54:00,
2013-03-24 13:59:00,33.2,10.9,30.13,ENE,73,2.4,5.0,39,0.00,SCT,,0.00,271.0,WeatherDisplay:10.37,2013-03-24 12:59:00,
2013-03-24 14:05:00,33.4,10.5,30.13,East,95,3.0,8.0,38,0.00,SCT,,0.00,246.0,WeatherDisplay:10.37,2013-03-24 13:05:00,
2013-03-24 14:10:00,33.5,10.0,30.12,East,96,5.0,7.0,37,0.00,SCT,,0.00,234.0,WeatherDisplay:10.37,2013-03-24 13:10:00,
2013-03-24 14:15:00,33.6,10.1,30.12,NNE,17,1.5,6.9,37,0.00,SCT,,0.00,230.0,WeatherDisplay:10.37,2013-03-24 13:15:00,
2013-03-24 14:20:00,33.7,10.7,30.12,SE,134,4.8,7.0,38,0.00,SCT,,0.00,234.0,WeatherDisplay:10.37,2013-03-24 13:20:00,
2013-03-24 14:25:00,33.9,10.9,30.12,East,85,3.0,8.1,38,0.00,SCT,,0.00,207.0,WeatherDisplay:10.37,2013-03-24 13:25:00,
2013-03-24 14:30:00,33.9,10.3,30.12,ESE,117,4.1,7.0,37,0.00,SCT,,0.00,214.0,WeatherDisplay:10.37,2013-03-24 13:30:00,
2013-03-24 14:35:00,33.9,10.9,30.12,East,98,4.3,6.0,38,0.00,SCT,,0.00,220.0,WeatherDisplay:10.37,2013-03-24 13:35:00,
2013-03-24 14:40:00,34.0,10.4,30.12,ENE,57,1.7,3.5,37,0.00,SCT,,0.00,243.0,WeatherDisplay:10.37,2013-03-24 13:40:00,
2013-03-24 14:45:00,34.2,11.8,30.12,SSE,157,1.9,4.0,39,0.00,SCT,,0.00,246.0,WeatherDisplay:10.37,2013-03-24 13:45:00,
2013-03-24 14:50:00,34.3,10.7,30.12,ESE,102,2.2,6.9,37,0.00,SCT,,0.00,250.0,WeatherDisplay:10.37,2013-03-24 13:50:00,
2013-03-24 14:55:00,34.4,12.0,30.12,East,85,1.7,6.9,39,0.00,SCT,,0.00,243.0,WeatherDisplay:10.37,2013-03-24 13:55:00,
2013-03-24 15:00:00,34.4,10.8,30.12,East,100,0.5,3.5,37,0.00,SCT,,0.00,287.0,WeatherDisplay:10.37,2013-03-24 14:00:00,
2013-03-24 15:05:00,34.6,11.6,30.12,ESE,121,1.9,3.5,38,0.00,FEW,,0.00,313.0,WeatherDisplay:10.37,2013-03-24 14:05:00,
2013-03-24 15:10:00,34.8,12.9,30.12,ESE,117,3.0,7.0,40,0.00,FEW,,0.00,250.0,WeatherDisplay:10.37,2013-03-24 14:10:00,
2013-03-24 15:15:00,34.9,13.0,30.11,SSE,156,2.3,6.0,40,0.00,FEW,,0.00,225.0,WeatherDisplay:10.37,2013-03-24 14:15:00,
2013-03-24 15:20:00,34.9,13.0,30.11,SE,136,1.9,5.0,40,0.00,SCT,,0.00,214.0,WeatherDisplay:10.37,2013-03-24 14:20:00,
2013-03-24 15:25:00,34.9,11.8,30.11,East,93,2.6,5.0,38,0.00,SCT,,0.00,237.0,WeatherDisplay:10.37,2013-03-24 14:25:00,
2013-03-24 15:30:00,34.9,11.8,30.11,SSE,163,0.4,3.5,38,0.00,FEW,,0.00,225.0,WeatherDisplay:10.37,2013-03-24 14:30:00,
2013-03-24 15:35:00,35.1,12.6,30.11,NNW,346,1.1,5.8,39,0.00,FEW,,0.00,221.0,WeatherDisplay:10.37,2013-03-24 14:35:00,
2013-03-24 15:40:00,35.1,12.0,30.11,ENE,63,0.2,4.6,38,0.00,FEW,,0.00,202.0,WeatherDisplay:10.37,2013-03-24 14:40:00,
2013-03-24 15:45:00,35.3,12.8,30.11,ENE,76,1.4,3.5,39,0.00,FEW,,0.00,179.0,WeatherDisplay:10.37,2013-03-24 14:45:00,
2013-03-24 15:50:00,35.3,12.2,30.11,East,87,3.5,7.0,38,0.00,SCT,,0.00,169.0,WeatherDisplay:10.37,2013-03-24 14:50:00,
2013-03-24 15:55:00,35.3,12.2,30.10,ENE,67,2.8,7.0,38,0.00,SCT,,0.00,169.0,WeatherDisplay:10.37,2013-03-24 14:55:00,
2013-03-24 16:00:00,35.4,14.0,30.11,ENE,70,0.0,1.2,41,0.00,SCT,,0.00,163.0,WeatherDisplay:10.37,2013-03-24 15:00:00,
2013-03-24 16:05:00,35.5,13.0,30.11,ESE,111,2.4,5.0,39,0.00,SCT,,0.00,135.0,WeatherDisplay:10.37,2013-03-24 15:05:00,
2013-03-24 16:10:00,35.5,11.1,30.11,ESE,111,1.6,3.5,36,0.00,SCT,,0.00,100.0,WeatherDisplay:10.37,2013-03-24 15:10:00,
2013-03-24 16:15:00,35.4,12.9,30.10,East,82,0.3,3.5,39,0.00,SCT,,0.00,118.0,WeatherDisplay:10.37,2013-03-24 15:15:00,
2013-03-24 16:20:00,35.4,12.3,30.10,East,92,3.1,9.2,38,0.00,SCT,,0.00,97.0,WeatherDisplay:10.37,2013-03-24 15:20:00,
2013-03-24 16:25:00,35.5,12.4,30.10,ESE,121,2.4,4.6,38,0.00,SCT,,0.00,65.0,WeatherDisplay:10.37,2013-03-24 15:25:00,
2013-03-24 16:30:00,35.4,11.7,30.10,NE,56,1.4,3.5,37,0.00,BKN,,0.00,49.0,WeatherDisplay:10.37,2013-03-24 15:30:00,
2013-03-24 16:36:00,35.4,11.7,30.10,East,101,0.8,4.6,37,0.00,BKN,,0.00,58.0,WeatherDisplay:10.37,2013-03-24 15:36:00,
2013-03-24 16:41:00,35.3,12.8,30.10,SE,138,2.2,4.6,39,0.00,BKN,,0.00,67.0,WeatherDisplay:10.37,2013-03-24 15:41:00,
2013-03-24 16:46:00,35.3,12.2,30.10,East,92,2.4,5.0,38,0.00,BKN,,0.00,51.0,WeatherDisplay:10.37,2013-03-24 15:46:00,
2013-03-24 16:51:00,35.2,12.1,30.10,ESE,117,1.2,4.6,38,0.00,BKN,,0.00,37.0,WeatherDisplay:10.37,2013-03-24 15:51:00,
2013-03-24 16:57:00,35.2,11.5,30.10,ESE,105,4.7,9.2,37,0.00,BKN,,0.00,40.0,WeatherDisplay:10.37,2013-03-24 15:57:00,
2013-03-24 17:02:00,35.0,11.3,30.09,SE,140,3.7,6.9,37,0.00,BKN,,0.00,35.0,WeatherDisplay:10.37,2013-03-24 16:02:00,
2013-03-24 17:07:00,34.8,11.1,30.10,East,83,1.3,3.5,37,0.00,BKN,,0.00,30.0,WeatherDisplay:10.37,2013-03-24 16:07:00,
2013-03-24 17:12:00,34.7,11.6,30.10,SE,139,4.1,8.0,38,0.00,BKN,,0.00,32.0,WeatherDisplay:10.37,2013-03-24 16:12:00,
2013-03-24 17:17:00,34.6,11.6,30.10,SE,126,1.7,3.5,38,0.00,BKN,,0.00,35.0,WeatherDisplay:10.37,2013-03-24 16:17:00,
2013-03-24 17:22:00,34.5,11.5,30.10,East,92,4.6,8.0,38,0.00,BKN,,0.00,47.0,WeatherDisplay:10.37,2013-03-24 16:22:00,
2013-03-24 17:27:00,34.5,11.5,30.10,ESE,121,3.7,8.1,38,0.00,BKN,,0.00,35.0,WeatherDisplay:10.37,2013-03-24 16:27:00,
2013-03-24 17:33:00,34.4,11.4,30.10,ESE,107,5.3,8.1,38,0.00,BKN,,0.00,35.0,WeatherDisplay:10.37,2013-03-24 16:33:00,
2013-03-24 17:38:00,34.3,11.9,30.10,SSE,150,3.6,6.9,39,0.00,BKN,,0.00,16.0,WeatherDisplay:10.37,2013-03-24 16:38:00,
2013-03-24 17:43:00,34.1,11.7,30.10,SE,128,3.5,6.9,39,0.00,BKN,,0.00,7.0,WeatherDisplay:10.37,2013-03-24 16:43:00,
2013-03-24 17:48:00,34.0,12.7,30.10,SE,127,2.2,8.0,41,0.00,BKN,,0.00,5.0,WeatherDisplay:10.37,2013-03-24 16:48:00,
2013-03-24 17:53:00,33.9,11.5,30.11,East,99,5.6,9.0,39,0.00,BKN,,0.00,0.0,WeatherDisplay:10.37,2013-03-24 16:53:00,
2013-03-24 17:58:00,33.8,11.4,30.10,ESE,107,3.6,9.0,39,0.00,BKN,,0.00,0.0,WeatherDisplay:10.37,2013-03-24 16:58:00,
2013-03-24 18:03:00,33.6,11.2,30.10,SE,136,3.4,9.2,39,0.00,BKN,,0.00,0.0,WeatherDisplay:10.37,2013-03-24 17:03:00,
2013-03-24 18:09:00,33.4,11.6,30.11,ESE,123,2.2,5.8,40,0.00,BKN,,0.00,0.0,WeatherDisplay:10.37,2013-03-24 17:09:00,
2013-03-24 18:14:00,33.3,11.5,30.11,East,85,4.6,10.4,40,0.00,BKN,,0.00,0.0,WeatherDisplay:10.37,2013-03-24 17:14:00,
2013-03-24 18:19:00,33.1,11.4,30.11,ESE,115,0.8,6.9,40,0.00,BKN,,0.00,0.0,WeatherDisplay:10.37,2013-03-24 17:19:00,
2013-03-24 18:24:00,33.0,11.8,30.11,ESE,123,1.9,7.0,41,0.00,BKN,,0.00,0.0,WeatherDisplay:10.37,2013-03-24 17:24:00,
2013-03-24 18:29:00,33.0,11.8,30.11,ESE,121,1.6,3.5,41,0.00,BKN,,0.00,0.0,WeatherDisplay:10.37,2013-03-24 17:29:00,
2013-03-24 18:34:00,32.9,12.3,30.11,ESE,109,2.8,5.0,42,0.00,BKN,,0.00,0.0,WeatherDisplay:10.37,2013-03-24 17:34:00,
2013-03-24 18:39:00,32.8,11.6,30.11,East,94,4.3,8.1,41,0.00,BKN,,0.00,0.0,WeatherDisplay:10.37,2013-03-24 17:39:00,
2013-03-24 18:44:00,32.7,12.6,30.11,East,96,3.0,5.8,43,0.00,BKN,,0.00,0.0,WeatherDisplay:10.37,2013-03-24 17:44:00,
2013-03-24 18:49:00,32.6,12.0,30.11,SSE,155,1.3,5.8,42,0.00,BKN,,0.00,0.0,WeatherDisplay:10.37,2013-03-24 17:49:00,
2013-03-24 18:54:00,32.6,12.5,30.11,SE,130,5.3,7.0,43,0.00,BKN,,0.00,0.0,WeatherDisplay:10.37,2013-03-24 17:54:00,
2013-03-24 18:59:00,32.5,12.5,30.11,SE,128,4.5,8.0,43,0.00,BKN,,0.00,0.0,WeatherDisplay:10.37,2013-03-24 17:59:00,
2013-03-24 19:04:00,32.5,12.5,30.11,SE,132,2.2,4.6,43,0.00,BKN,,0.00,0.0,WeatherDisplay:10.37,2013-03-24 18:04:00,
2013-03-24 19:09:00,32.4,12.4,30.11,ESE,123,1.8,4.6,43,0.00,BKN,,0.00,0.0,WeatherDisplay:10.37,2013-03-24 18:09:00,
2013-03-24 19:14:00,32.4,12.9,30.11,ESE,123,2.7,4.6,44,0.00,BKN,,0.00,0.0,WeatherDisplay:10.37,2013-03-24 18:14:00,
2013-03-24 19:19:00,32.3,12.8,30.11,ESE,117,2.7,6.9,44,0.00,BKN,,0.00,0.0,WeatherDisplay:10.37,2013-03-24 18:19:00,
2013-03-24 19:24:00,32.2,12.2,30.12,SE,134,2.8,6.0,43,0.00,BKN,,0.00,0.0,WeatherDisplay:10.37,2013-03-24 18:24:00,
2013-03-24 19:29:00,32.2,12.7,30.12,SE,128,5.1,9.0,44,0.00,BKN,,0.00,0.0,WeatherDisplay:10.37,2013-03-24 18:29:00,
2013-03-24 19:35:00,32.2,13.2,30.12,SE,126,1.0,8.0,45,0.00,BKN,,0.00,0.0,WeatherDisplay:10.37,2013-03-24 18:35:00,
2013-03-24 19:40:00,32.1,13.1,30.12,SE,127,3.0,8.0,45,0.00,BKN,,0.00,0.0,WeatherDisplay:10.37,2013-03-24 18:40:00,
2013-03-24 19:45:00,32.0,12.0,30.12,ESE,121,3.6,8.1,43,0.00,BKN,,0.00,0.0,WeatherDisplay:10.37,2013-03-24 18:45:00,
2013-03-24 19:50:00,32.0,12.5,30.12,ESE,104,3.4,6.9,44,0.00,BKN,,0.00,0.0,WeatherDisplay:10.37,2013-03-24 18:50:00,
2013-03-24 19:55:00,31.9,12.4,30.12,ESE,113,2.8,5.0,44,0.00,BKN,,0.00,0.0,WeatherDisplay:10.37,2013-03-24 18:55:00,
2013-03-24 20:00:00,31.9,12.4,30.12,SSE,151,4.9,8.1,44,0.00,BKN,,0.00,0.0,WeatherDisplay:10.37,2013-03-24 19:00:00,
2013-03-24 20:05:00,31.8,12.3,30.12,ESE,113,5.4,10.4,44,0.00,BKN,,0.00,0.0,WeatherDisplay:10.37,2013-03-24 19:05:00,
2013-03-24 20:10:00,31.7,12.2,30.12,East,88,5.1,10.4,44,0.00,BKN,,0.00,0.0,WeatherDisplay:10.37,2013-03-24 19:10:00,
2013-03-24 20:15:00,31.6,13.2,30.12,SE,140,4.7,8.0,46,0.00,BKN,,0.00,0.0,WeatherDisplay:10.37,2013-03-24 19:15:00,
2013-03-24 20:20:00,31.6,12.7,30.12,ESE,114,4.2,6.0,45,0.00,BKN,,0.00,0.0,WeatherDisplay:10.37,2013-03-24 19:20:00,
2013-03-24 20:25:00,31.5,12.1,30.12,ENE,78,1.7,6.9,44,0.00,BKN,,0.00,0.0,WeatherDisplay:10.37,2013-03-24 19:25:00,
2013-03-24 20:30:00,31.5,12.1,30.12,SE,141,3.3,6.9,44,0.00,BKN,,0.00,0.0,WeatherDisplay:10.37,2013-03-24 19:30:00,
2013-03-24 20:35:00,31.4,12.0,30.12,East,92,4.6,7.0,44,0.00,BKN,,0.00,0.0,WeatherDisplay:10.37,2013-03-24 19:35:00,
2013-03-24 20:40:00,31.4,12.0,30.11,East,99,5.7,9.2,44,0.00,BKN,,0.00,0.0,WeatherDisplay:10.37,2013-03-24 19:40:00,
2013-03-24 20:45:00,31.3,12.4,30.11,ESE,122,2.7,10.0,45,0.00,BKN,,0.00,0.0,WeatherDisplay:10.37,2013-03-24 19:45:00,
2013-03-24 20:50:00,31.2,12.3,30.11,SE,126,2.2,8.1,45,0.00,BKN,,0.00,0.0,WeatherDisplay:10.37,2013-03-24 19:50:00,
2013-03-24 20:55:00,31.2,12.3,30.11,ENE,71,3.7,8.1,45,0.00,BKN,,0.00,0.0,WeatherDisplay:10.37,2013-03-24 19:55:00,
2013-03-24 21:00:00,31.2,12.3,30.11,ESE,102,3.1,5.8,45,0.00,BKN,,0.00,0.0,WeatherDisplay:10.37,2013-03-24 20:00:00,
2013-03-24 21:05:00,31.1,12.2,30.12,SE,135,2.8,8.1,45,0.00,BKN,,0.00,0.0,WeatherDisplay:10.37,2013-03-24 20:05:00,
2013-03-24 21:10:00,31.0,12.1,30.11,ESE,117,1.6,6.9,45,0.00,BKN,,0.00,0.0,WeatherDisplay:10.37,2013-03-24 20:10:00,
2013-03-24 21:15:00,31.0,12.6,30.12,ESE,109,5.0,9.0,46,0.00,BKN,,0.00,0.0,WeatherDisplay:10.37,2013-03-24 20:15:00,
2013-03-24 21:20:00,31.0,12.1,30.12,ESE,114,2.5,9.2,45,0.00,BKN,,0.00,0.0,WeatherDisplay:10.37,2013-03-24 20:20:00,
2013-03-24 21:25:00,30.9,12.0,30.12,East,86,0.7,4.6,45,0.00,BKN,,0.00,0.0,WeatherDisplay:10.37,2013-03-24 20:25:00,
2013-03-24 21:30:00,30.9,12.5,30.11,East,100,1.3,3.0,46,0.00,BKN,,0.00,0.0,WeatherDisplay:10.37,2013-03-24 20:30:00,
2013-03-24 21:35:00,30.8,12.4,30.11,ESE,115,2.1,10.4,46,0.00,BKN,,0.00,0.0,WeatherDisplay:10.37,2013-03-24 20:35:00,
2013-03-24 21:40:00,30.8,12.4,30.12,SE,131,3.7,9.2,46,0.00,BKN,,0.00,0.0,WeatherDisplay:10.37,2013-03-24 20:40:00,
2013-03-24 21:45:00,30.8,11.9,30.12,ESE,105,2.1,4.6,45,0.00,BKN,,0.00,0.0,WeatherDisplay:10.37,2013-03-24 20:45:00,
2013-03-24 21:50:00,30.8,11.9,30.12,SE,128,3.7,7.0,45,0.00,BKN,,0.00,0.0,WeatherDisplay:10.37,2013-03-24 20:50:00,
2013-03-24 21:55:00,30.8,11.9,30.12,SE,140,3.5,7.0,45,0.00,BKN,,0.00,0.0,WeatherDisplay:10.37,2013-03-24 20:55:00,
2013-03-24 22:00:00,30.8,11.4,30.12,East,99,2.2,8.1,44,0.00,BKN,,0.00,0.0,WeatherDisplay:10.37,2013-03-24 21:00:00,
2013-03-24 22:05:00,30.8,11.9,30.12,ESE,120,3.1,5.0,45,0.00,BKN,,0.00,0.0,WeatherDisplay:10.37,2013-03-24 21:05:00,
2013-03-24 22:10:00,30.8,11.9,30.11,ESE,123,1.2,2.3,45,0.00,BKN,,0.00,0.0,WeatherDisplay:10.37,2013-03-24 21:10:00,
2013-03-24 22:15:00,30.8,11.9,30.11,ESE,119,0.6,2.3,45,0.00,BKN,,0.00,0.0,WeatherDisplay:10.37,2013-03-24 21:15:00,
2013-03-24 22:20:00,30.8,11.9,30.11,SE,132,2.9,5.8,45,0.00,BKN,,0.00,0.0,WeatherDisplay:10.37,2013-03-24 21:20:00,
2013-03-24 22:25:00,30.8,10.9,30.11,ESE,113,2.9,4.6,43,0.00,BKN,,0.00,0.0,WeatherDisplay:10.37,2013-03-24 21:25:00,
2013-03-24 22:30:00,30.7,10.3,30.11,ESE,107,3.3,8.1,42,0.00,BKN,,0.00,0.0,WeatherDisplay:10.37,2013-03-24 21:30:00,
2013-03-24 22:35:00,30.8,10.9,30.11,SE,141,2.1,4.0,43,0.00,BKN,,0.00,0.0,WeatherDisplay:10.37,2013-03-24 21:35:00,
2013-03-24 22:40:00,30.8,10.9,30.11,SE,126,2.1,3.5,43,0.00,BKN,,0.00,0.0,WeatherDisplay:10.37,2013-03-24 21:40:00,
2013-03-24 22:45:00,30.7,10.3,30.11,ESE,115,2.1,4.6,42,0.00,BKN,,0.00,0.0,WeatherDisplay:10.37,2013-03-24 21:45:00,
2013-03-24 22:50:00,30.7,10.8,30.11,SSE,159,2.6,4.0,43,0.00,BKN,,0.00,0.0,WeatherDisplay:10.37,2013-03-24 21:50:00,
2013-03-24 22:55:00,30.7,11.3,30.11,ESE,114,3.0,5.0,44,0.00,BKN,,0.00,0.0,WeatherDisplay:10.37,2013-03-24 21:55:00,
2013-03-24 23:00:00,30.7,11.3,30.11,ESE,120,0.5,3.5,44,0.00,BKN,,0.00,0.0,WeatherDisplay:10.37,2013-03-24 22:00:00,
2013-03-24 23:05:00,30.6,11.7,30.10,ESE,119,0.3,2.3,45,0.00,BKN,,0.00,0.0,WeatherDisplay:10.37,2013-03-24 22:05:00,
2013-03-24 23:10:00,30.6,12.2,30.10,East,80,2.1,3.5,46,0.00,BKN,,0.00,0.0,WeatherDisplay:10.37,2013-03-24 22:10:00,
2013-03-24 23:15:00,30.6,12.2,30.10,ESE,105,2.1,4.0,46,0.00,BKN,,0.00,0.0,WeatherDisplay:10.37,2013-03-24 22:15:00,
2013-03-24 23:20:00,30.5,12.2,30.10,East,94,2.7,4.6,46,0.00,BKN,,0.00,0.0,WeatherDisplay:10.37,2013-03-24 22:20:00,
2013-03-24 23:25:00,30.5,13.1,30.10,NNE,19,0.9,3.5,48,0.00,BKN,,0.00,0.0,WeatherDisplay:10.37,2013-03-24 22:25:00,
2013-03-24 23:30:00,30.4,13.0,30.10,NE,56,0.0,1.2,48,0.00,BKN,,0.00,0.0,WeatherDisplay:10.37,2013-03-24 22:30:00,
2013-03-24 23:35:00,30.4,13.5,30.10,East,84,0.4,3.5,49,0.00,BKN,,0.00,0.0,WeatherDisplay:10.37,2013-03-24 22:35:00,
2013-03-24 23:40:00,30.4,13.5,30.10,East,93,0.8,4.6,49,0.00,BKN,,0.00,0.0,WeatherDisplay:10.37,2013-03-24 22:40:00,
2013-03-24 23:45:00,30.3,13.9,30.10,ENE,74,0.7,3.5,50,0.00,BKN,,0.00,0.0,WeatherDisplay:10.37,2013-03-24 22:45:00,
2013-03-24 23:50:00,30.3,13.9,30.10,NNE,27,2.6,4.0,50,0.00,BKN,,0.00,0.0,WeatherDisplay:10.37,2013-03-24 22:50:00,
2013-03-24 23:55:00,30.2,13.8,30.10,NNE,23,4.6,7.0,50,0.00,BKN,,0.00,0.0,WeatherDisplay:10.37,2013-03-24 22:55:00,